Glenwood, MN

8:54 PM CDT on April 30, 2017 (GMT -0500)
Glenwood Municipal

Weather History for KGHW - June, 2014

Change the Weather History Date:

Wednesday, June 4, 2014

  Actual Average Record
Temperature  
Mean Temperature 68 °F -  
Max Temperature 78 °F 76 °F 94 °F (1968)
Min Temperature 57 °F 51 °F 36 °F (1951)
Cooling Degree Days 2    
Growing Degree Days 18 (Base 50)    
Moisture  
Dew Point 53 °F    
Average Humidity 61    
Maximum Humidity 88    
Minimum Humidity 34    
Precipitation  
Precipitation 0.00 in - - ()
Sea Level Pressure  
Sea Level Pressure 29.90 in    
Wind  
Wind Speed 4 mph (ENE)    
Max Wind Speed 8 mph    
Max Gust Speed -    
Visibility 10 miles    
Events      
Averages and records for this station are not official NWS values.
T = Trace of Precipitation, MM = Missing Value Source: NWS Daily Summary

Daily Weather History Graph

Daily Weather History Graph

Search for Another Location

Airport or City:

Trip Planner

Search our weather history database for the weather conditions in past years. The results will help you decide how hot, cold, wet, or windy it might be!

Date:

Astronomy

Jun. 04, 2014 Rise Set
Actual Time 5:33 AM CDT 9:05 PM CDT
Civil Twilight 4:56 AM CDT 9:43 PM CDT
Nautical Twilight 4:07 AM CDT 10:32 PM CDT
Astronomical Twilight 3:02 AM CDT 11:37 PM CDT
Moon 12:08 PM CDT (6/4) 12:52 AM CDT (6/4)
Length of Visible Light 16h 46m
Length of Day
15h 31m
Waxing Crescent, 39% of the Moon is Illuminated
Jun 4
Waxing Crescent
Jun 5
First Quarter
Jun 12
Full
Jun 19
Last Quarter
Jun 27
New

Hourly Weather History & Observations

Time (CDT) Temp. Dew Point Humidity Pressure Visibility Wind Dir Wind Speed Gust Speed Precip Events Conditions
12:14 AM 60.8 °F 55.4 °F 82% 29.86 in 10.0 mi Calm Calm - N/A   Clear
12:54 AM 60.8 °F 55.4 °F 82% 29.85 in 10.0 mi NNE 3.5 mph - N/A   Clear
1:14 AM 60.8 °F 55.4 °F 82% 29.86 in 10.0 mi North 3.5 mph - N/A   Clear
1:34 AM 60.8 °F 55.4 °F 82% 29.86 in 10.0 mi North 3.5 mph - N/A   Clear
1:54 AM 59.0 °F 53.6 °F 82% 29.87 in 10.0 mi Calm Calm - N/A   Clear
2:15 AM 59.0 °F 55.4 °F 88% 29.87 in 10.0 mi North 3.5 mph - N/A   Clear
2:34 AM 57.2 °F 53.6 °F 88% 29.87 in 10.0 mi North 5.8 mph - N/A   Clear
2:54 AM 57.2 °F 53.6 °F 88% 29.88 in 10.0 mi North 6.9 mph - N/A   Clear
3:15 AM 57.2 °F 53.6 °F 88% 29.89 in 10.0 mi North 6.9 mph - N/A   Clear
3:34 AM 57.2 °F 53.6 °F 88% 29.89 in 10.0 mi North 6.9 mph - N/A   Clear
3:54 AM 57.2 °F 53.6 °F 88% 29.89 in 10.0 mi North 6.9 mph - N/A   Clear
4:14 AM 57.2 °F 53.6 °F 88% 29.89 in 10.0 mi North 5.8 mph - N/A   Clear
4:34 AM 57.2 °F 53.6 °F 88% 29.89 in 10.0 mi North 5.8 mph - N/A   Clear
4:55 AM 57.2 °F 53.6 °F 88% 29.89 in 10.0 mi North 4.6 mph - N/A   Clear
5:14 AM 57.2 °F 53.6 °F 88% 29.89 in 10.0 mi North 5.8 mph - N/A   Clear
5:34 AM 57.2 °F 53.6 °F 88% 29.89 in 10.0 mi North 5.8 mph - N/A   Clear
5:54 AM 57.2 °F 53.6 °F 88% 29.89 in 10.0 mi North 5.8 mph - N/A   Clear
6:14 AM 57.2 °F 53.6 °F 88% 29.89 in 10.0 mi North 4.6 mph - N/A   Clear
6:35 AM 60.8 °F 53.6 °F 77% 29.89 in 10.0 mi North 5.8 mph - N/A   Clear
6:53 AM 60.8 °F 55.4 °F 82% 29.90 in 10.0 mi North 5.8 mph - N/A   Clear
7:14 AM 62.6 °F 55.4 °F 77% 29.90 in 10.0 mi North 4.6 mph - N/A   Clear
7:35 AM 64.4 °F 55.4 °F 73% 29.90 in 10.0 mi North 5.8 mph - N/A   Clear
7:54 AM 64.4 °F 55.4 °F 73% 29.89 in 10.0 mi North 6.9 mph - N/A   Clear
8:14 AM 66.2 °F 55.4 °F 68% 29.90 in 10.0 mi North 8.1 mph - N/A   Clear
8:34 AM 66.2 °F 55.4 °F 68% 29.90 in 10.0 mi North 8.1 mph - N/A   Clear
8:54 AM 68.0 °F 57.2 °F 68% 29.91 in 10.0 mi North 8.1 mph - N/A   Clear
9:15 AM 69.8 °F 57.2 °F 64% 29.91 in 10.0 mi NNE 5.8 mph - N/A   Clear
9:34 AM 71.6 °F 55.4 °F 57% 29.92 in 10.0 mi NE 5.8 mph - N/A   Clear
9:55 AM 71.6 °F 55.4 °F 57% 29.92 in 10.0 mi East 5.8 mph - N/A   Clear
10:14 AM 73.4 °F 55.4 °F 53% 29.92 in 10.0 mi East 4.6 mph - N/A   Clear
10:34 AM 73.4 °F 53.6 °F 50% 29.92 in 10.0 mi East 5.8 mph - N/A   Scattered Clouds
10:54 AM 75.2 °F 53.6 °F 47% 29.93 in 10.0 mi ESE 8.1 mph - N/A   Mostly Cloudy
11:14 AM 75.2 °F 51.8 °F 44% 29.93 in 10.0 mi Calm Calm - N/A   Scattered Clouds
11:35 AM 73.4 °F 53.6 °F 50% 29.93 in 10.0 mi South 3.5 mph - N/A   Mostly Cloudy
11:54 AM 73.4 °F 51.8 °F 47% 29.94 in 10.0 mi SSE 4.6 mph - N/A   Mostly Cloudy
12:14 PM 75.2 °F 51.8 °F 44% 29.93 in 10.0 mi East 6.9 mph - N/A   Mostly Cloudy
12:34 PM 75.2 °F 50.0 °F 41% 29.93 in 10.0 mi East 3.5 mph - N/A   Unknown
12:54 PM 75.2 °F 48.2 °F 38% 29.93 in 10.0 mi ESE 4.6 mph - N/A   Unknown
1:14 PM 77.0 °F 51.8 °F 41% 29.93 in 10.0 mi SE 5.8 mph - N/A   Unknown
1:34 PM 77.0 °F 48.2 °F 36% 29.93 in 10.0 mi Calm Calm - N/A   Scattered Clouds
1:55 PM 73.4 °F 53.6 °F 50% 29.92 in 10.0 mi West 8.1 mph - N/A   Mostly Cloudy
2:14 PM 73.4 °F 51.8 °F 47% 29.92 in 10.0 mi West 4.6 mph - N/A   Mostly Cloudy
2:34 PM 75.2 °F 53.6 °F 47% 29.92 in 10.0 mi NW 3.5 mph - N/A   Scattered Clouds
2:54 PM 78.8 °F 51.8 °F 39% 29.91 in 10.0 mi West 4.6 mph - N/A   Clear
3:14 PM 75.2 °F 50.0 °F 41% 29.91 in 10.0 mi South 4.6 mph - N/A   Clear
3:35 PM 75.2 °F 48.2 °F 38% 29.91 in 10.0 mi Calm Calm - N/A   Scattered Clouds
3:54 PM 78.8 °F 50.0 °F 36% 29.90 in 10.0 mi Calm Calm - N/A   Mostly Cloudy
4:14 PM 78.8 °F 48.2 °F 34% 29.90 in 10.0 mi Calm Calm - N/A   Mostly Cloudy
4:34 PM 75.2 °F 50.0 °F 41% 29.90 in 10.0 mi NE 3.5 mph - N/A   Overcast
4:54 PM 75.2 °F 50.0 °F 41% 29.90 in 7.0 mi Calm Calm - N/A   Overcast
5:14 PM 75.2 °F 50.0 °F 41% 29.89 in 10.0 mi ESE 3.5 mph - N/A   Mostly Cloudy
5:34 PM 75.2 °F 50.0 °F 41% 29.89 in 10.0 mi SSE 3.5 mph - N/A   Scattered Clouds
5:54 PM 75.2 °F 51.8 °F 44% 29.89 in 10.0 mi ESE 5.8 mph - N/A   Clear
6:14 PM 73.4 °F 50.0 °F 44% 29.89 in 10.0 mi SE 4.6 mph - N/A   Scattered Clouds
6:34 PM 73.4 °F 51.8 °F 47% 29.88 in 10.0 mi SSE 4.6 mph - N/A   Mostly Cloudy
6:54 PM 73.4 °F 51.8 °F 47% 29.88 in 10.0 mi South 3.5 mph - N/A   Scattered Clouds
7:14 PM 73.4 °F 51.8 °F 47% 29.88 in 10.0 mi ESE 3.5 mph - N/A   Scattered Clouds
7:34 PM 75.2 °F 51.8 °F 44% 29.88 in 10.0 mi ESE 8.1 mph - N/A   Mostly Cloudy
7:54 PM 75.2 °F 51.8 °F 44% 29.88 in 10.0 mi East 6.9 mph - N/A   Mostly Cloudy
8:14 PM 73.4 °F 51.8 °F 47% 29.87 in 10.0 mi ESE 6.9 mph - N/A   Mostly Cloudy
8:34 PM 71.6 °F 53.6 °F 53% 29.88 in 10.0 mi ESE 4.6 mph - N/A   Scattered Clouds
8:54 PM 71.6 °F 53.6 °F 53% 29.89 in 10.0 mi SE 3.5 mph - N/A   Mostly Cloudy
9:14 PM 71.6 °F 53.6 °F 53% 29.90 in 10.0 mi SSE 3.5 mph - N/A   Mostly Cloudy
9:34 PM 69.8 °F 53.6 °F 56% 29.90 in 10.0 mi ESE 4.6 mph - N/A   Scattered Clouds
10:14 PM 66.2 °F 53.6 °F 64% 29.90 in 10.0 mi ESE 4.6 mph - N/A   Clear
10:34 PM 66.2 °F 55.4 °F 68% 29.90 in 10.0 mi ESE 5.8 mph - N/A   Clear
10:55 PM 66.2 °F 55.4 °F 68% 29.90 in 10.0 mi ESE 4.6 mph - N/A   Clear
11:14 PM 64.4 °F 53.6 °F 68% 29.90 in 10.0 mi ESE 4.6 mph - N/A   Clear
11:34 PM 64.4 °F 53.6 °F 68% 29.90 in 10.0 mi SE 5.8 mph - N/A   Clear
11:54 PM 64.4 °F 53.6 °F 68% 29.91 in 10.0 mi SE 5.8 mph - N/A   Clear